Location: Anjeux
(47.8815°N, 6.2076°E)
Time: 03:35:18
(UTC+00:00)

ISS - Pass Details

Date: 04 October 2021
Orbit: 417 x 423 km, 51.6° (Epoch: 23 October)

Event Time Altitude Azimuth Distance (km) Brightness Sun altitude
Rises 19:07:39 0° 285° (WNW) 2,365 1.7 -20.7°
Reaches altitude 10° 19:10:23 10° 261° (W) 1,498 -0.1 -21.1°
Maximum altitude 19:12:24 15° 224° (SW) 1,223 -1.1 -21.4°
Enters shadow 19:13:22 14° 204° (SSW) 1,289 -1.2 -21.6°
